Flag for U.S.A. Weather past 2 weeks in Provincetown, Massachusetts, U.S.A.

Now
68 °F

Clear.


Feels Like: 68 °F
Forecast: 65 / 71 °F
Wind: 10 mph from Southwest

Location: Provincetown Weather Reporting Station

Current Time: Jul 24, 2014 at 3:15:03 AM

Latest Report: Jul 24, 2014 at 2:35 AM


Visibility: 10 mi

Pressure: 29.76 "Hg

Humidity: 94%

Dew point: 66 °F

Location of ProvincetownLocation

Historic Weather in Provincetown — Graph

°F

Provincetown temperature yesterday

Maximum temperature yesterday: 81 °F (at 12:55 PM)
Minimum temperature yesterday: 68 °F (at 3:55 AM)
Average temperature yesterday: 74 °F

Past Weeks' High & Low Weather Summary

 TemperatureHumidityPressure
High81 °F (Jul 12, 1:15 PM)100% (Jul 10, 1:15 AM)30.28 "Hg (Jul 10, 1:15 AM)
Low55 °F (Jul 19, 5:55 AM)42% (Jul 12, 1:15 PM)29.72 "Hg (Jul 9, 2:55 AM)
Average69 °F85%30.05 "Hg
* Reported Jul 9 2:55 AM — Jul 24 2:15 AM, Provincetown, Weather by CustomWeather, © 2014

Note: Actual official high and low records may vary slightly from our data, if they occured in-between our weather recording intervals... More about our weather records

Advertising

Provincetown weather history for previous 24 hours

 ConditionsComfort  
Time TempWeatherWind HumidityBarometerVisibility
2:15 AM
Jul 24
70 °FClear.9 mph100%29.76 "Hg10 mi
1:35 AM70 °FClear.7 mph100%29.74 "Hg10 mi
1:15 AM70 °FClear.8 mph100%29.76 "Hg10 mi
12:55 AM70 °FPassing clouds.7 mph94%29.77 "Hg10 mi
12:35 AM70 °FPassing clouds.9 mph100%29.79 "Hg10 mi
12:15 AM70 °FPassing clouds.13 mph100%29.80 "Hg10 mi
11:55 PM
Jul 23
70 °FPartly cloudy.16 mph100%29.80 "Hg10 mi
11:35 PM70 °FPassing clouds.14 mph100%29.81 "Hg10 mi
10:55 PM70 °FClear.13 mph100%29.81 "Hg10 mi
10:35 PM70 °FClear.15 mph100%29.82 "Hg10 mi
10:15 PM70 °FClear.14 mph100%29.82 "Hg10 mi
9:55 PM70 °FClear.13 mph94%29.83 "Hg10 mi
9:35 PM70 °FClear.14 mph88%29.83 "Hg10 mi
8:55 PM70 °FSunny.14 mph88%29.82 "Hg10 mi
8:35 PM72 °FSunny.15 mph78%29.81 "Hg10 mi
8:15 PM72 °FSunny.16 mph78%29.81 "Hg10 mi
7:55 PM72 °FSunny.17 mph78%29.80 "Hg10 mi
7:35 PM72 °FSunny.17 mph83%29.80 "Hg10 mi
7:15 PM72 °FSunny.15 mph83%29.81 "Hg10 mi
6:55 PM73 °FSunny.16 mph78%29.81 "Hg10 mi
6:35 PM75 °FSunny.18 mph74%29.80 "Hg10 mi
6:15 PM75 °FSunny.17 mph74%29.80 "Hg10 mi
5:55 PM75 °FSunny.17 mph74%29.80 "Hg10 mi
5:35 PM77 °FSunny.17 mph69%29.80 "Hg10 mi
5:15 PM77 °FSunny.16 mph69%29.80 "Hg10 mi
4:55 PM79 °FSunny.17 mph70%29.80 "Hg10 mi
4:35 PM79 °FSunny.21 mph74%29.81 "Hg10 mi
4:15 PM79 °FSunny.17 mph74%29.82 "Hg10 mi
3:55 PM79 °FSunny.21 mph79%29.83 "Hg10 mi
3:15 PM79 °FSunny.20 mph79%29.83 "Hg10 mi
2:55 PM81 °FSunny.18 mph74%29.84 "Hg10 mi
2:35 PM81 °FSunny.15 mph74%29.85 "Hg10 mi
2:15 PM81 °FSunny.18 mph74%29.85 "Hg10 mi
1:55 PM81 °FSunny.17 mph74%29.86 "Hg10 mi
1:35 PM79 °FSunny.16 mph79%29.87 "Hg10 mi
1:15 PM81 °FSunny.18 mph74%29.87 "Hg10 mi
12:55 PM81 °FSunny.18 mph74%29.88 "Hg10 mi
12:35 PM79 °FSunny.16 mph79%29.88 "Hg10 mi
12:15 PM79 °FSunny.15 mph79%29.89 "Hg10 mi
11:55 AM77 °FSunny.17 mph79%29.89 "Hg10 mi
11:35 AM77 °FSunny.18 mph83%29.90 "Hg10 mi
11:15 AM79 °FSunny.17 mph79%29.91 "Hg10 mi
10:55 AM77 °FPassing clouds.16 mph83%29.91 "Hg10 mi
10:35 AM75 °FSunny.18 mph89%29.92 "Hg10 mi
10:15 AM75 °FSunny.16 mph89%29.93 "Hg10 mi
9:55 AM75 °FSunny.18 mph89%29.93 "Hg10 mi
9:15 AM73 °FSunny.14 mph94%29.94 "Hg10 mi
8:35 AM73 °FSunny.8 mph89%29.95 "Hg10 mi
8:15 AM73 °FSunny.14 mph74%29.95 "Hg10 mi
7:15 AM70 °FSunny.12 mph88%29.95 "Hg10 mi
6:35 AM70 °FSunny.12 mph83%29.95 "Hg10 mi
6:15 AM70 °FClear.10 mph83%29.96 "Hg10 mi
5:55 AM68 °FClear.12 mph88%29.96 "Hg10 mi
5:35 AM68 °FClear.12 mph88%29.96 "Hg10 mi
4:55 AM68 °FClear.13 mph83%29.96 "Hg10 mi
4:35 AM68 °FClear.10 mph83%29.97 "Hg10 mi
3:55 AM68 °FClear.10 mph83%29.96 "Hg10 mi
Weather by CustomWeather, © 2014

See weather overviewHow to use our weather pages